Location: ?ernice
(48.8383°N, 14.3803°E)
Time: 21:51:53
(UTC+00:00)

Cosmos 2237 Rocket - Pass Details

Date: 23 May 2024
Orbit: 833 x 850 km, 71.0° (Epoch: 20 June)

Event Time Altitude Azimuth Distance (km) Brightness Sun altitude
Rises 02:12:08 0° 335° (NNW) 3,426 5.6 -8.3°
Reaches altitude 10° 02:14:53 10° 345° (NNW) 2,485 5.1 -8.0°
Maximum altitude 02:19:57 32° 48° (NE) 1,429 4.4 -7.4°
Drops below altitude 10° 02:24:59 10° 111° (ESE) 2,466 5.0 -6.8°
Sets 02:27:41 0° 121° (ESE) 3,395 5.6 -6.5°
